Weather History for Sheridan, WY

Change the Weather History Date:

Tuesday, January 8, 2013

  Actual Average Record
Temperature  
Mean Temperature 30 °F 23 °F  
Max Temperature 42 °F 36 °F 69 °F (2002)
Min Temperature 17 °F 11 °F -28 °F (1973)
Degree Days  
Heating Degree Days 35 42  
Month to date heating degree days 334 336  
Since 1 July heating degree days 3289 3519  
Cooling Degree Days 0 0  
Month to date cooling degree days 0 0  
Year to date cooling degree days 0 0  
Moisture  
Dew Point 18 °F    
Average Humidity 57    
Maximum Humidity 75    
Minimum Humidity 39    
Precipitation  
Precipitation 0.00 in 0.01 in 0.48 in (1949)
Month to date precipitation T 0.13  
Year to date precipitation T 0.13  
Sea Level Pressure  
Sea Level Pressure 29.96 in    
Wind  
Wind Speed 10 mph (West)    
Max Wind Speed 28 mph    
Max Gust Speed 33 mph    
Visibility 10 miles    
Events      
T = Trace of Precipitation, MM = Missing Value Source: NWS Daily Summary

Daily Weather History Graph

Daily Weather History Graph

Search for Another Location

Airport:

Trip Planner

Search our weather history database for the weather conditions in past years. The results will help you decide how hot, cold, wet, or windy it might be!

Date:

Astronomy

Jan. 08, 2013 Rise Set
Actual Time 7:44 AM MST 4:45 PM MST
Civil Twilight 7:11 AM MST 5:18 PM MST
Nautical Twilight 6:34 AM MST 5:55 PM MST
Astronomical Twilight 5:59 AM MST 6:30 PM MST
Moon 4:20 AM MST (1/8) 1:50 PM MST (1/8)
Length of Visible Light 10h 07m
Length of Day
9h 00m
Waning Crescent, 13% of the Moon is Illuminated
Jan 8
Waning Crescent
Jan 11
New
Jan 18
First Quarter
Jan 26
Full
Feb 3
Last Quarter

Hourly Weather History & Observations

Time (MST) Temp. Windchill Dew Point Humidity Pressure Visibility Wind Dir Wind Speed Gust Speed Precip Events Conditions
12:53 AM 26.1 °F 21.9 °F 19.9 °F 78% 29.75 in 10.0 mi SW 3.5 mph - N/A   Scattered Clouds
1:53 AM 27.0 °F 21.6 °F 19.0 °F 72% 29.77 in 10.0 mi SSW 4.6 mph - N/A   Clear
2:53 AM 28.0 °F 24.2 °F 19.9 °F 72% 29.78 in 10.0 mi South 3.5 mph - N/A   Overcast
3:53 AM 35.1 °F 27.9 °F 19.9 °F 54% 29.77 in 10.0 mi West 9.2 mph - N/A   Mostly Cloudy
4:53 AM 37.9 °F 28.9 °F 21.0 °F 51% 29.81 in 10.0 mi West 16.1 mph - N/A   Overcast
5:53 AM 37.9 °F 28.9 °F 19.0 °F 47% 29.82 in 10.0 mi West 16.1 mph - N/A   Scattered Clouds
6:53 AM 37.0 °F 28.9 °F 21.9 °F 54% 29.85 in 10.0 mi West 12.7 mph - N/A   Unknown
7:53 AM 39.0 °F 31.4 °F 19.9 °F 46% 29.86 in 10.0 mi West 12.7 mph - N/A   Overcast
8:53 AM 37.0 °F 30.4 °F 21.9 °F 54% 29.90 in 10.0 mi West 9.2 mph - N/A   Overcast
9:53 AM 39.9 °F 32.5 °F 21.0 °F 47% 29.92 in 10.0 mi West 12.7 mph - N/A   Overcast
10:53 AM 39.9 °F 33.9 °F 23.0 °F 51% 29.94 in 10.0 mi NNW 9.2 mph - N/A   Overcast
11:53 AM 41.0 °F 32.8 °F 21.0 °F 45% 29.92 in 10.0 mi NW 16.1 mph - N/A   Overcast
12:53 PM 42.1 °F 32.8 °F 19.9 °F 41% 29.94 in 10.0 mi NNW 21.9 mph 26.5 mph N/A   Overcast
1:53 PM 41.0 °F 30.9 °F 19.9 °F 43% 29.96 in 10.0 mi NW 24.2 mph 32.2 mph N/A   Mostly Cloudy
2:53 PM 41.0 °F 30.9 °F 19.9 °F 43% 29.99 in 10.0 mi NNW 24.2 mph 31.1 mph N/A   Clear
3:53 PM 37.0 °F 28.1 °F 19.0 °F 48% 30.03 in 10.0 mi NNW 15.0 mph - N/A   Clear
4:53 PM 30.9 °F 25.2 °F 18.0 °F 59% 30.06 in 10.0 mi WSW 5.8 mph - N/A   Partly Cloudy
5:53 PM 27.0 °F 21.6 °F 16.0 °F 63% 30.11 in 10.0 mi West 4.6 mph - N/A   Clear
6:53 PM 23.0 °F 15.8 °F 15.1 °F 72% 30.13 in 10.0 mi West 5.8 mph - N/A   Partly Cloudy
7:53 PM 21.0 °F 14.6 °F 14.0 °F 74% 30.13 in 10.0 mi SW 4.6 mph - N/A   Partly Cloudy
8:53 PM 23.0 °F 15.8 °F 14.0 °F 68% 30.14 in 10.0 mi SSW 5.8 mph - N/A   Clear
9:53 PM 21.2 °F 14.9 °F 12.2 °F 68% 30.02 in 10.0 mi South 4.6 mph - N/A   Clear
10:53 PM 19.0 °F - 10.9 °F 71% 30.12 in 10.0 mi Calm Calm - N/A   Clear
11:53 PM 18.0 °F 12.7 °F 10.9 °F 74% 30.11 in 10.0 mi NE 3.5 mph - N/A   Clear